User: anonymous   Login
Location: ???????
(55.4362°N, 38.1183°E)
Time: 18:46:02
(UTC+00:00)
Language:

GEOS 3 Rocket - Orbit

View from above orbital plane
View from above orbital plane
View from above satellite
View from above satellite

Ground track
Ground track

The orbit data is extracted from the following two-line orbital elements,

1  7735U 75027B   21271.54539114 -.00000107  00000-0  30419-4 0  9998
2  7735 114.9730 201.8160 0035323 181.4915 178.6065 14.24650198413069
Epoch (UTC): 28 September 2021 13:05:21
Eccentricity: 0.0035323
inclination: 114.9730°
perigee height: 784 km
apogee height: 835 km
right ascension of ascending node: 201.8160°
argument of perigee: 181.4915°
revolutions per day: 14.24650198
mean anomaly at epoch: 178.6065°
orbit number at epoch: 41306

The dashed part of the orbit path shows where the satellite is in the earth's shadow,  

DLR